Location: Ward Pound Ridge Reservation
(41.2500°N, 73.6000°W)
Time: 22:34:58
(UTC-04:00)

Tiangong 1 - Pass Details

Date: 10 October 2017
Orbit: 292 x 319 km, 42.8° (Epoch: 22 October)

Event Time Altitude Azimuth Distance (km) Brightness Sun altitude
Rises 19:20:24 0° 274° (W) 2,043 6.9 -12.0°
Reaches altitude 10° 19:22:25 10° 279° (W) 1,207 5.1 -12.3°
Maximum altitude 19:25:05 58° 359° (N) 367 0.9 -12.8°
Enters shadow 19:26:14 28° 69° (ENE) 613 1.6 -13.1°
